• Processing (Info)

  • MPEC 2024-P91 : 2024 PS1

    The following Minor Planet Electronic Circular may be linked-to from your own Web pages, but must not otherwise be redistributed electronically.

    A form allowing access to any MPEC is at the bottom of this page.


    Read MPEC 2024-P90 Read MPEC 2024-P92


    M.P.E.C. 2024-P91                                Issued 2024 August 7, 04:16 UT
    
         The Minor Planet Electronic Circulars contain information on unusual
             minor planets, routine data on comets and natural satellites,
             and occasional editorial announcements.  They are published
        on behalf of Division F of the International Astronomical Union by the
              Minor Planet Center, Smithsonian Astrophysical Observatory,
                              Cambridge, MA 02138, U.S.A.
    			  
                 Prepared using the Tamkin Foundation Computer Network
    
                                  MPC@CFA.HARVARD.EDU
                URL https://www.minorplanetcenter.net/    ISSN 1523-6714
    
                                    2024 PS1                                 
    
    
    Observations:
         K24P01S* C2024 08 05.31096517 22 07.039+08 02 25.04         21.62wXEP091F52
         K24P01S  C2024 08 05.32030817 22 04.238+08 01 43.71         21.55wXEP091F52
         K24P01S  C2024 08 05.32960017 22 01.523+08 01 03.28         22.12wXEP091F52
         K24P01S 7C2024 08 05.88195217 19 56.812+07 16 20.16         21.5 GVEP091Z84
         K24P01S 7C2024 08 05.91893817 19 45.079+07 13 09.38               VEP091Z84
         K24P01S 7C2024 08 05.95603717 19 33.462+07 09 55.42               VEP091Z84
         K24P01S 3C2024 08 06.38824917 17 39.036+06 31 27.75         21.27GVEP091T14
         K24P01S 3C2024 08 06.38992917 17 38.452+06 31 17.82         21.74GVEP091T14
         K24P01S 3C2024 08 06.39144417 17 37.917+06 31 08.72         21.55GVEP091T14
         K24P01S  C2024 08 07.14436217 14 02.178+05 09 10.85         20.8 GVEP091H01
         K24P01S  C2024 08 07.14865317 14 00.351+05 08 39.85         20.9 GVEP091H01
         K24P01S  C2024 08 07.15935717 13 55.819+05 07 22.85         20.6 GVEP091H01
         K24P01S  C2024 08 07.16627317 13 52.876+05 06 32.58         20.4 GVEP091H01
    
    Observer details:
    F52 Pan-STARRS 2, Haleakala.  Observers J. Herman, T. Lowe, P. Minguez, A.
        Schultz, I. Smith.  Measurers K. Chambers, T. de Boer, J. Fairlamb, H.
        Gao, M. Huber, C.-C. Lin, E. Magnier, Y. Ramanjooloo, R. Wainscoat, R.
        Weryk.  1.8-m Ritchey-Chretien + CCD.
    H01 Magdalena Ridge Observatory, Socorro.  Observers W. H. Ryan, E. V. Ryan.
        Measurer W. H. Ryan.  2.4-m f/8.9 Ritchey-Chretien + CCD.
    T14 Canada-France-Hawaii Telescope, Maunakea.  Observers R. Wainscoat, A.
        Acohido, V. Khatu.  Measurers R. Weryk, R. Wainscoat.  3.6-m f/4.1
        reflector + CCD.
    Z84 Calar Alto-Schmidt.  Observers R. Kresken, F. Ocana, M. Micheli, L.
        Conversi.  Measurers F. Ocana, M. Micheli, R. Kresken.  0.8-m f/3
        Schmidt + CCD.
    
    Orbital elements:
    2024 PS1                                                 Earth MOID = 0.0027 AU
    Epoch 2024 Oct. 17.0 TT = JDT 2460600.5                 MPC                     
    M  19.20781              (2000.0)            P               Q                  
    n   0.42686624     Peri.  205.02494     +0.95555780     +0.27443312             
    a   1.7469273      Node   138.57002     -0.23561684     +0.93047749             
    e   0.4347565      Incl.    9.36578     -0.17718349     +0.24268933             
    P   2.31           H   26.50          G   0.15           U   8                  
    Residuals in seconds of arc
    240805 F52  0.0   0.2-    240805 Z84  0.1+  0.1+    240807 H01  0.0   0.1-
    240805 F52  0.2-  0.0     240806 T14  0.0   0.0     240807 H01  0.1+  0.1+
    240805 F52 (0.5+  1.1+)   240806 T14  0.0   0.0     240807 H01  0.1-  0.1-
    240805 Z84  0.0   0.2+    240806 T14  0.2-  0.2-
    240805 Z84  0.1+  0.0     240807 H01  0.1+  0.0
    
    Ephemeris:
    2024 PS1                 a,e,i = 1.75, 0.43, 9                   q = 0.9874
    Date    TT    R. A. (2000) Decl.     Delta      r    Elong.  Phase     V
    2024 07 08    17 58 49.9 +13 15 14   0.1835  1.1638   140.3    33.9    24.6
    ...
    2024 07 23    17 45 09.3 +13 44 24   0.1068  1.0888   130.9    44.9    23.5
    ...
    2024 07 31    17 34 54.8 +11 56 34   0.06739 1.0552   125.0    52.0    22.7
    ...
    2024 08 06    17 19 30.0 +07 08 09   0.03832 1.0337   119.5    58.7    21.6
    2024 08 07    17 14 49.6 +05 28 17   0.03355 1.0305   118.2    60.1    21.3
    2024 08 08    17 08 45.1 +03 14 48   0.02883 1.0273   116.8    61.8    21.1
    ...
    2024 08 14    11 56 59.8 -55 59 07   0.0093851.0108    76.4   103.1    20.2
    ...
    2024 08 22    06 22 02.0 -27 44 58   0.04279 0.9954    66.8   110.9    23.9
    ...
    2024 09 06    06 06 09.4 -21 00 01   0.1143  0.9885    76.9    96.6    25.2
    
    A. U. Tomatic                (C) Copyright 2024 MPC           M.P.E.C. 2024-P91
    


    Read MPEC 2024-P90 Read MPEC 2024-P92


    MPEC number:

    Enter an MPEC number in one of the following forms:

    • 1997-B01 (the full form)
    • J97B01 (the packed version of the full form)
    • B01 (the abbreviated form)